Location: *
(58.4167°N, 22.5000°E)
Time: 18:29:43
(UTC+00:00)

Cosmos 1331 Rocket - Pass Details

Date: 22 September 2019
Orbit: 750 x 777 km, 74.0° (Epoch: 22 October)

Event Time Altitude Azimuth Distance (km) Brightness Sun altitude
Exits shadow 20:34:42 78° 10° (N) 796 4.0 -27.6°
Drops below altitude 10° 20:39:38 10° 30° (NNE) 2,319 6.8 -28.0°
Sets 20:42:00 0° 31° (NNE) 3,245 7.6 -28.1°
